Flag for Madagascar Weather past 2 weeks in Toamasina, Madagascar

Now
75 °F

Scattered clouds.


Feels Like: 77 °F
Forecast: 60 / 77 °F
Wind: 14 mph from Southwest

Location: Tamatave

Current Time: Aug 5, 2015 at 10:30:32 AM

Latest Report: Aug 5, 2015 at 10:00 AM


Visibility: N/A

Pressure: 30.21 "Hg

Humidity: 69%

Dew point: 64 °F

Location of ToamasinaLocation

Historic Weather in Toamasina — Graph

°F

Toamasina temperature yesterday

Maximum temperature yesterday: 77 °F (at 1:00 PM)
Minimum temperature yesterday: 63 °F (at 6:00 AM)
Average temperature yesterday: 68 °F

Past Weeks' High & Low Weather Summary

 TemperatureHumidityPressure
High81 °F (Jul 29, 12:00 PM)100% (Jul 22, 2:00 AM)30.27 "Hg (Jul 22, 2:00 AM)
Low63 °F (Jul 26, 5:00 AM)42% (Jul 26, 11:00 AM)29.95 "Hg (Aug 1, 3:00 PM)
Average71 °F84%30.14 "Hg
* Reported Jul 21 9:00 AM — Aug 5 9:00 AM, Toamasina, Weather by CustomWeather, © 2015

Note: Actual official high and low records may vary slightly from our data, if they occured in-between our weather recording intervals... More about our weather records

Advertising

Toamasina weather history for previous 24 hours

 ConditionsComfort  
Time TempWeatherWind HumidityBarometerVisibility
9:00 AM
Wed, Aug 5
72 °FScattered clouds.12 mph78%30.21 "HgN/A
8:00 AM70 °FPassing clouds.12 mph78%30.21 "HgN/A
7:00 AM64 °FScattered clouds.9 mph88%30.18 "HgN/A
6:00 AM64 °FPassing clouds.7 mph88%30.18 "HgN/A
5:00 AM64 °FScattered showers. Partly cloudy.9 mph94%30.18 "HgN/A
4:00 AM64 °FScattered showers. Partly cloudy.9 mph94%30.18 "Hg6 mi
3:00 AM64 °FScattered showers. Partly cloudy.9 mph94%30.18 "Hg6 mi
2:00 AM64 °FScattered showers. Partly cloudy.9 mph94%30.24 "Hg6 mi
1:00 AM64 °FScattered showers. Partly cloudy.9 mph94%30.24 "Hg6 mi
12:00 AM64 °FLight rain. Partly cloudy.9 mph94%30.24 "Hg4 mi
11:00 PM
Tue, Aug 4
64 °FScattered showers. Partly cloudy.9 mph94%30.24 "HgN/A
10:00 PM64 °FScattered showers. Partly cloudy.9 mph94%30.24 "HgN/A
9:00 PM64 °FScattered showers. Partly cloudy.9 mph94%30.24 "HgN/A
8:00 PM68 °FLight rain. Partly cloudy.12 mph94%30.24 "Hg4 mi
7:00 PM70 °FScattered showers. Partly cloudy.12 mph83%30.21 "HgN/A
6:00 PM70 °FScattered showers. Partly cloudy.12 mph83%30.21 "HgN/A
5:00 PM72 °FScattered showers. Scattered clouds.12 mph73%30.18 "HgN/A
4:00 PM75 °FScattered showers. Scattered clouds.14 mph69%30.18 "HgN/A
3:00 PM77 °FScattered showers. Scattered clouds.14 mph65%30.18 "HgN/A
2:00 PM77 °FScattered showers. Scattered clouds.14 mph65%30.18 "HgN/A
1:00 PM77 °FScattered showers. Scattered clouds.12 mph74%30.18 "HgN/A
12:00 PM73 °FLight rain. Broken clouds.9 mph74%30.21 "Hg5 mi
11:00 AM72 °FPartly sunny.7 mph83%30.24 "HgN/A
10:00 AM70 °FScattered showers. Broken clouds.7 mph94%30.24 "HgN/A
Weather by CustomWeather, © 2015

See weather overviewHow to use our weather pages